• In Uzbekistan
  • List of Countries
  • For 7 days
  • Water Temperature
  • Satellite Maps
  • Weather Map
  • Weather Widgets
  • user-avatar
    Login

    Hourly Weather Punakha

    Today, 26 June, Wednesday

    Time Temperature Precipitation Wind Pressure Humidity
    00:00 +19°C° 0 mm 1 mps 585 mmHg 92%
    01:00 +17°C° 0 mm 0 mps 584 mmHg 91%
    02:00 +17°C° 0 mm 0 mps 584 mmHg 91%
    03:00 +17°C° 0 mm 0 mps 583 mmHg 90%
    04:00 +18°C° 0 mm 0 mps 584 mmHg 89%
    05:00 +20°C° 0 mm 1 mps 584 mmHg 87%
    06:00 +20°C° 0 mm 1 mps 584 mmHg 86%
    07:00 +21°C° 0.2 mm 1 mps 584 mmHg 83%
    08:00 +22°C° 0.2 mm 1 mps 584 mmHg 80%
    09:00 +23°C° 0.2 mm 1 mps 585 mmHg 76%
    10:00 +23°C° 0.2 mm 1 mps 585 mmHg 78%
    11:00 +23°C° 0.2 mm 2 mps 584 mmHg 79%
    12:00 +24°C° 0.2 mm 2 mps 584 mmHg 80%
    13:00 +23°C° 0.3 mm 2 mps 584 mmHg 82%
    14:00 +23°C° 0.3 mm 2 mps 583 mmHg 83%
    15:00 +23°C° 0.3 mm 2 mps 582 mmHg 84%
    16:00 +22°C° 0.2 mm 1 mps 582 mmHg 86%
    17:00 +22°C° 0.2 mm 1 mps 582 mmHg 88%
    18:00 +22°C° 0.2 mm 1 mps 582 mmHg 90%
    19:00 +21°C° 0.1 mm 1 mps 582 mmHg 91%
    20:00 +21°C° 0.1 mm 1 mps 583 mmHg 93%
    21:00 +19°C° 0.1 mm 0 mps 583 mmHg 94%
    22:00 +18°C° 0.1 mm 0 mps 583 mmHg 94%
    23:00 +18°C° 0.1 mm 0 mps 583 mmHg 94%

    Tomorrow, 27 June, Thursday

    Time Temperature Precipitation Wind Pressure Humidity
    00:00 +18°C° 0.1 mm 0 mps 582 mmHg 94%
    01:00 +18°C° 0.1 mm 0 mps 582 mmHg 94%
    02:00 +18°C° 0.1 mm 0 mps 581 mmHg 93%
    03:00 +17°C° 0.1 mm 0 mps 581 mmHg 93%
    04:00 +18°C° 0 mm 0 mps 581 mmHg 92%
    05:00 +18°C° 0 mm 0 mps 581 mmHg 90%
    06:00 +18°C° 0 mm 0 mps 581 mmHg 88%
    07:00 +21°C° 0 mm 1 mps 582 mmHg 83%
    08:00 +23°C° 0 mm 1 mps 582 mmHg 77%
    09:00 +25°C° 0 mm 1 mps 583 mmHg 72%
    10:00 +25°C° 0.2 mm 2 mps 582 mmHg 73%
    11:00 +25°C° 0.2 mm 2 mps 582 mmHg 73%
    12:00 +25°C° 0.2 mm 3 mps 582 mmHg 74%
    13:00 +25°C° 0.6 mm 3 mps 581 mmHg 76%
    14:00 +25°C° 0.6 mm 2 mps 581 mmHg 77%
    15:00 +25°C° 0.6 mm 2 mps 580 mmHg 78%
    16:00 +24°C° 0.8 mm 2 mps 580 mmHg 83%
    17:00 +23°C° 0.8 mm 2 mps 580 mmHg 88%
    18:00 +22°C° 0.8 mm 1 mps 579 mmHg 93%
    19:00 +22°C° 0.2 mm 1 mps 580 mmHg 95%
    20:00 +21°C° 0.2 mm 1 mps 580 mmHg 96%
    21:00 +18°C° 0.2 mm 0 mps 580 mmHg 97%
    22:00 +18°C° 0.3 mm 0 mps 580 mmHg 97%
    23:00 +18°C° 0.3 mm 0 mps 581 mmHg 97%

    Day after tomorrow, 28 June, Friday

    Time Temperature Precipitation Wind Pressure Humidity
    00:00 +18°C° 0.3 mm 0 mps 581 mmHg 96%
    01:00 +18°C° 0.2 mm 0 mps 581 mmHg 97%
    02:00 +18°C° 0.2 mm 0 mps 580 mmHg 97%
    03:00 +18°C° 0.2 mm 0 mps 580 mmHg 97%
    04:00 +18°C° 0.1 mm 0 mps 580 mmHg 96%
    05:00 +18°C° 0.1 mm 0 mps 580 mmHg 95%
    06:00 +18°C° 0.1 mm 0 mps 580 mmHg 94%
    07:00 +21°C° 0.2 mm 1 mps 581 mmHg 93%
    08:00 +21°C° 0.2 mm 1 mps 581 mmHg 92%
    09:00 +22°C° 0.2 mm 1 mps 582 mmHg 90%
    10:00 +23°C° 0.3 mm 1 mps 582 mmHg 86%
    11:00 +24°C° 0.3 mm 1 mps 582 mmHg 81%
    12:00 +25°C° 0.3 mm 2 mps 582 mmHg 77%
    13:00 +25°C° 0.4 mm 2 mps 582 mmHg 76%
    14:00 +25°C° 0.4 mm 2 mps 582 mmHg 74%
    15:00 +26°C° 0.4 mm 3 mps 582 mmHg 73%
    16:00 +25°C° 0.5 mm 2 mps 581 mmHg 80%
    17:00 +23°C° 0.5 mm 2 mps 581 mmHg 86%
    18:00 +22°C° 0.5 mm 1 mps 580 mmHg 93%
    19:00 +22°C° 0.2 mm 1 mps 580 mmHg 94%
    20:00 +21°C° 0.2 mm 1 mps 581 mmHg 95%
    21:00 +18°C° 0.2 mm 0 mps 581 mmHg 96%
    22:00 +18°C° 0.2 mm 0 mps 581 mmHg 97%
    23:00 +18°C° 0.2 mm 0 mps 581 mmHg 97%

    29 June, Saturday

    Time Temperature Precipitation Wind Pressure Humidity
    00:00 +18°C° 0.2 mm 0 mps 582 mmHg 97%
    01:00 +18°C° 0.1 mm 0 mps 581 mmHg 96%
    02:00 +18°C° 0.1 mm 0 mps 581 mmHg 96%
    03:00 +18°C° 0.1 mm 0 mps 581 mmHg 96%
    04:00 +18°C° 0 mm 0 mps 582 mmHg 94%
    05:00 +18°C° 0 mm 0 mps 582 mmHg 93%
    06:00 +18°C° 0 mm 0 mps 582 mmHg 92%
    07:00 +22°C° 0 mm 1 mps 583 mmHg 86%
    08:00 +23°C° 0 mm 1 mps 583 mmHg 80%
    09:00 +25°C° 0 mm 1 mps 584 mmHg 75%
    10:00 +25°C° 0.2 mm 2 mps 584 mmHg 75%
    11:00 +25°C° 0.2 mm 2 mps 583 mmHg 74%
    12:00 +25°C° 0.2 mm 2 mps 583 mmHg 74%
    13:00 +26°C° 0.2 mm 2 mps 582 mmHg 73%
    14:00 +26°C° 0.2 mm 2 mps 582 mmHg 71%
    15:00 +26°C° 0.2 mm 2 mps 582 mmHg 70%
    16:00 +25°C° 0.2 mm 2 mps 581 mmHg 74%
    17:00 +24°C° 0.2 mm 2 mps 581 mmHg 78%
    18:00 +24°C° 0.2 mm 2 mps 581 mmHg 83%
    19:00 +23°C° 0.1 mm 1 mps 581 mmHg 87%
    20:00 +22°C° 0.1 mm 1 mps 581 mmHg 91%
    21:00 +19°C° 0.1 mm 0 mps 581 mmHg 95%
    22:00 +19°C° 0.2 mm 0 mps 582 mmHg 94%
    23:00 +19°C° 0.2 mm 0 mps 582 mmHg 93%

    30 June, Sunday

    Time Temperature Precipitation Wind Pressure Humidity
    00:00 +19°C° 0.2 mm 0 mps 582 mmHg 93%
    01:00 +18°C° 0.5 mm 0 mps 582 mmHg 94%
    02:00 +18°C° 0.5 mm 0 mps 582 mmHg 95%
    03:00 +18°C° 0.5 mm 0 mps 581 mmHg 97%
    04:00 +18°C° 0.1 mm 0 mps 582 mmHg 96%
    05:00 +18°C° 0.1 mm 0 mps 582 mmHg 95%
    06:00 +18°C° 0.1 mm 0 mps 582 mmHg 94%
    07:00 +20°C° 0.1 mm 0 mps 582 mmHg 88%
    08:00 +23°C° 0.1 mm 1 mps 583 mmHg 83%
    09:00 +25°C° 0.1 mm 1 mps 584 mmHg 78%
    10:00 +25°C° 0.5 mm 2 mps 584 mmHg 75%
    11:00 +26°C° 0.5 mm 2 mps 584 mmHg 73%
    12:00 +27°C° 0.5 mm 2 mps 583 mmHg 71%
    13:00 +27°C° 0.8 mm 2 mps 583 mmHg 73%
    14:00 +27°C° 0.8 mm 2 mps 582 mmHg 75%
    15:00 +27°C° 0.8 mm 2 mps 582 mmHg 77%
    16:00 +25°C° 0.7 mm 2 mps 581 mmHg 82%
    17:00 +24°C° 0.7 mm 2 mps 581 mmHg 87%
    18:00 +23°C° 0.7 mm 1 mps 580 mmHg 92%
    19:00 +22°C° 0.2 mm 1 mps 581 mmHg 94%
    20:00 +22°C° 0.2 mm 1 mps 581 mmHg 95%
    21:00 +19°C° 0.2 mm 0 mps 582 mmHg 97%
    22:00 +21°C° 0.3 mm 1 mps 582 mmHg 96%
    23:00 +21°C° 0.3 mm 1 mps 582 mmHg 95%

    1 July, Monday

    Time Temperature Precipitation Wind Pressure Humidity
    00:00 +21°C° 0.3 mm 1 mps 582 mmHg 95%
    01:00 +20°C° 0.4 mm 1 mps 582 mmHg 94%
    02:00 +20°C° 0.4 mm 1 mps 581 mmHg 94%
    03:00 +18°C° 0.4 mm 0 mps 581 mmHg 93%
    04:00 +18°C° 0.2 mm 0 mps 581 mmHg 93%
    05:00 +18°C° 0.2 mm 0 mps 582 mmHg 92%
    06:00 +18°C° 0.2 mm 0 mps 582 mmHg 91%
    07:00 +22°C° 0.1 mm 1 mps 583 mmHg 87%
    08:00 +23°C° 0.1 mm 1 mps 583 mmHg 83%
    09:00 +24°C° 0.1 mm 1 mps 584 mmHg 79%
    10:00 +24°C° 0.3 mm 2 mps 583 mmHg 79%
    11:00 +25°C° 0.3 mm 2 mps 583 mmHg 79%
    12:00 +25°C° 0.3 mm 2 mps 583 mmHg 79%
    13:00 +25°C° 0.5 mm 2 mps 582 mmHg 79%
    14:00 +25°C° 0.5 mm 2 mps 582 mmHg 79%
    15:00 +25°C° 0.5 mm 1 mps 581 mmHg 79%
    16:00 +24°C° 0.2 mm 1 mps 581 mmHg 81%
    17:00 +24°C° 0.2 mm 1 mps 581 mmHg 82%
    18:00 +23°C° 0.2 mm 1 mps 581 mmHg 84%
    19:00 +22°C° 0.1 mm 1 mps 581 mmHg 87%
    20:00 +21°C° 0.1 mm 1 mps 581 mmHg 91%
    21:00 +18°C° 0.1 mm 0 mps 581 mmHg 94%
    22:00 +18°C° 0 mm 0 mps 582 mmHg 94%
    23:00 +18°C° 0 mm 0 mps 582 mmHg 93%
    Show more